Date String (YYYY-MM-DD hh:mm:ss) UTC,Instrument flags,absolute air pressure of the measurement (hPa),sample flow rate (lpm),inlet stack bypass flow (lpm),air temperature of the measurement (°C),ambient temperature measured by the external sensor (°C),aerosol sample conditioner tube jacket temperature (°C),OPC LED temperature (°C),internal box temperature (°C),relative humidity of the measurement (%),span deviation,mass concentration of particles derived from Lorenz-Mie calculation of OPC scattering (μg/m³),mass concentration of particles derived from Lorenz-Mie calculation of OPC scattering (μg/m³),mass concentration of particles derived from Lorenz-Mie calculation of OPC scattering (μg/m³)
DateTimeUTC,F1_M11,P_M11,Q1_M11,Q2_M11,T1_M11,T2_M11,T3_M11,T4_M11,T5_M11,U1_M11,ZSPAN_M11,X2_M11,X0_M11,X1_M11
2023-12-07 05:00:00,SystemResetWarning,0825.8,5.01,000.00,025.4,024.3,000.0,033.8,026.7,7.4,0000.0,0001.34,0003.26,0001.15
2023-12-07 05:01:00,SystemResetWarning,0825.7,5.00,000.00,025.4,024.3,000.0,033.8,026.7,7.4,0000.0,0001.37,0003.28,0001.17
2023-12-07 05:02:00,SystemResetWarning,0825.7,4.99,000.00,025.4,024.3,000.0,033.8,026.7,7.2,0000.0,0001.36,0003.25,0001.18
2023-12-07 05:03:00,SystemResetWarning,0825.7,5.00,000.00,025.4,024.2,000.0,033.8,026.7,7.2,0000.0,0001.34,0003.20,0001.17
2023-12-07 05:04:00,SystemResetWarning,0825.7,5.01,000.00,025.4,024.2,000.0,033.8,026.6,7.2,0000.0,0001.33,0003.16,0001.17
2023-12-07 05:05:00,SystemResetWarning,0825.7,5.01,000.00,025.4,024.2,000.0,033.8,026.6,7.1,0000.0,0001.31,0003.11,0001.17
2023-12-07 05:06:00,SystemResetWarning,0825.6,5.01,000.00,025.3,024.2,000.0,033.8,026.6,7.1,0000.0,0001.31,0003.10,0001.18
2023-12-07 05:07:00,SystemResetWarning,0825.6,5.00,000.00,025.3,024.1,000.0,033.8,026.6,7.1,0000.0,0001.29,0002.75,0001.15
2023-12-07 05:08:00,SystemResetWarning,0825.6,5.00,000.00,025.3,024.1,000.0,033.7,026.6,7.1,0000.0,0001.22,0001.60,0001.11
2023-12-07 05:09:00,SystemResetWarning,0825.6,4.99,000.00,025.3,024.1,000.0,033.7,026.6,7.1,0000.0,0001.13,0001.30,0001.04
2023-12-07 05:10:00,SystemResetWarning,0825.6,4.99,000.00,025.3,024.1,000.0,033.7,026.5,7.1,0000.0,0001.00,0001.15,0000.93
2023-12-07 05:11:00,SystemResetWarning,0825.6,5.00,000.00,025.3,024.0,000.0,033.7,026.5,7.3,0000.0,0000.92,0001.10,0000.84
2023-12-07 05:12:00,SystemResetWarning,0825.6,5.00,000.00,025.2,024.0,000.0,033.7,026.5,7.3,0000.0,0000.88,0001.20,0000.78
2023-12-07 05:13:00,SystemResetWarning,0825.6,5.01,000.00,025.2,024.0,000.0,033.7,026.5,7.3,0000.0,0000.82,0001.13,0000.73
2023-12-07 05:14:00,SystemResetWarning,0825.6,5.00,000.00,025.2,024.0,000.0,033.7,026.5,7.2,0000.0,0000.77,0001.05,0000.70
2023-12-07 05:15:00,SystemResetWarning,0825.6,5.00,000.00,025.2,024.0,000.0,033.7,026.4,7.2,0000.0,0000.74,0001.02,0000.69
2023-12-07 05:16:00,SystemResetWarning,0825.6,5.00,000.00,025.2,023.9,000.0,033.7,026.5,7.4,0000.0,0000.71,0000.99,0000.65
2023-12-07 05:17:00,SystemResetWarning,0825.6,4.99,000.00,025.2,023.9,000.0,033.6,026.5,7.3,0000.0,0000.66,0000.94,0000.61
2023-12-07 05:18:00,SystemResetWarning,0825.5,5.00,000.00,025.2,023.9,000.0,033.6,026.4,7.2,0000.0,0000.61,0000.87,0000.56
2023-12-07 05:19:00,SystemResetWarning,0825.5,4.99,000.00,025.1,023.9,000.0,033.6,026.4,7.1,0000.0,0000.59,0000.91,0000.53
2023-12-07 05:20:00,SystemResetWarning,0825.5,5.00,000.00,025.1,023.9,000.0,033.6,026.4,7.2,0000.0,0000.57,0000.90,0000.50
2023-12-07 05:21:00,SystemResetWarning,0825.5,5.00,000.00,025.1,023.9,000.0,033.6,026.4,7.4,0000.0,0000.58,0001.01,0000.50
2023-12-07 05:22:00,SystemResetWarning,0825.5,5.00,000.00,025.1,023.9,000.0,033.6,026.3,7.4,0000.0,0000.57,0001.01,0000.49
2023-12-07 05:23:00,SystemResetWarning,0825.4,5.00,000.00,025.1,023.9,000.0,033.6,026.3,7.2,0000.0,0000.55,0000.83,0000.49
2023-12-07 05:24:00,SystemResetWarning,0825.4,5.00,000.00,025.1,023.9,000.0,033.6,026.3,7.2,0000.0,0000.55,0000.83,0000.49
2023-12-07 05:25:00,SystemResetWarning,0825.4,5.00,000.00,025.1,023.9,000.0,033.6,026.3,7.2,0000.0,0000.56,0000.85,0000.50
2023-12-07 05:26:00,SystemResetWarning,0825.4,5.00,000.00,025.1,023.8,000.0,033.5,026.3,7.2,0000.0,0000.56,0000.87,0000.49
2023-12-07 05:27:00,SystemResetWarning,0825.4,5.01,000.00,025.0,023.8,000.0,033.5,026.3,7.2,0000.0,0000.58,0000.91,0000.51
2023-12-07 05:28:00,SystemResetWarning,0825.3,5.00,000.00,025.0,023.8,000.0,033.5,026.2,7.2,0000.0,0000.59,0000.93,0000.51
2023-12-07 05:29:00,SystemResetWarning,0825.3,5.00,000.00,025.0,023.8,000.0,033.5,026.2,7.1,0000.0,0000.59,0000.92,0000.50
2023-12-07 05:30:00,SystemResetWarning,0825.3,5.00,000.00,025.0,023.8,000.0,033.5,026.2,6.9,0000.0,0000.57,0000.87,0000.50
2023-12-07 05:31:00,SystemResetWarning,0825.3,5.00,000.00,025.0,023.8,000.0,033.5,026.2,6.9,0000.0,0000.57,0000.84,0000.51
2023-12-07 05:32:00,SystemResetWarning,0825.3,5.00,000.00,025.0,023.8,000.0,033.5,026.2,6.9,0000.0,0000.56,0000.75,0000.50
2023-12-07 05:33:00,SystemResetWarning,0825.3,5.00,000.00,025.0,023.8,000.0,033.4,026.3,6.9,0000.0,0000.57,0001.17,0000.51
2023-12-07 05:34:00,SystemResetWarning,0825.2,5.00,000.00,025.0,023.8,000.0,033.4,026.3,6.9,0000.0,0000.59,0002.23,0000.50
2023-12-07 05:35:00,SystemResetWarning,0825.3,5.00,000.00,025.0,023.8,000.0,033.4,026.3,7.0,0000.0,0000.59,0002.24,0000.50
2023-12-07 05:36:00,SystemResetWarning,0825.2,5.00,000.00,025.0,023.8,000.0,033.4,026.2,6.9,0000.0,0000.58,0002.24,0000.49
2023-12-07 05:37:00,SystemResetWarning,0825.2,5.00,000.00,025.0,023.8,000.0,033.4,026.3,6.9,0000.0,0000.57,0002.22,0000.48
2023-12-07 05:38:00,SystemResetWarning,0825.2,4.99,000.00,025.0,023.8,000.0,033.4,026.3,7.3,0000.0,0000.54,0002.17,0000.46
2023-12-07 05:39:00,SystemResetWarning,0825.2,5.00,000.00,025.0,023.9,000.0,033.4,026.3,7.8,0000.0,0000.53,0002.16,0000.46
2023-12-07 05:40:00,SystemResetWarning,0825.3,5.00,000.00,025.0,023.9,000.0,033.4,026.4,7.5,0000.0,0000.52,0002.14,0000.45
2023-12-07 05:41:00,SystemResetWarning,0825.2,5.00,000.00,025.0,023.9,000.0,033.4,026.4,7.3,0000.0,0000.50,0002.11,0000.43
2023-12-07 05:42:00,SystemResetWarning,0825.2,5.00,000.00,025.0,024.0,000.0,033.4,026.4,7.1,0000.0,0000.51,0002.15,0000.43
2023-12-07 05:43:00,SystemResetWarning,0825.2,4.99,000.00,025.0,024.0,000.0,033.4,026.4,7.3,0000.0,0000.51,0002.16,0000.42
2023-12-07 05:44:00,SystemResetWarning,0825.3,4.99,000.00,025.0,023.9,000.0,033.4,026.3,7.1,0000.0,0000.48,0001.55,0000.41
2023-12-07 05:45:00,SystemResetWarning,0825.3,5.01,000.00,025.0,023.9,000.0,033.4,026.3,7.1,0000.0,0000.45,0000.61,0000.41
2023-12-07 05:46:00,SystemResetWarning,0825.2,5.01,000.00,025.0,023.9,000.0,033.4,026.3,7.2,0000.0,0000.45,0000.65,0000.41
2023-12-07 05:47:00,SystemResetWarning,0825.2,5.01,000.00,025.0,024.0,000.0,033.4,026.3,7.2,0000.0,0000.44,0000.81,0000.40
2023-12-07 05:48:00,SystemResetWarning,0825.3,5.00,000.00,025.0,024.0,000.0,033.4,026.3,7.1,0000.0,0000.45,0000.81,0000.41
2023-12-07 05:49:00,SystemResetWarning,0825.2,4.99,000.00,025.0,024.0,000.0,033.4,026.3,7.0,0000.0,0000.46,0000.82,0000.41
2023-12-07 05:50:00,SystemResetWarning,0825.2,4.99,000.00,025.0,023.9,000.0,033.4,026.4,7.1,0000.0,0000.45,0000.82,0000.40
2023-12-07 05:51:00,SystemResetWarning,0825.2,4.99,000.00,025.0,023.9,000.0,033.4,026.4,7.2,0000.0,0000.45,0000.83,0000.41
2023-12-07 05:52:00,SystemResetWarning,0825.2,5.00,000.00,025.0,023.9,000.0,033.3,026.4,7.4,0000.0,0000.47,0000.87,0000.40
2023-12-07 05:53:00,SystemResetWarning,0825.1,5.00,000.00,025.0,023.9,000.0,033.3,026.3,7.3,0000.0,0000.47,0000.89,0000.40
2023-12-07 05:54:00,SystemResetWarning,0825.2,5.00,000.00,025.0,023.9,000.0,033.3,026.3,7.5,0000.0,0000.48,0000.97,0000.41
2023-12-07 05:55:00,SystemResetWarning,0825.2,5.00,000.00,025.0,023.9,000.0,033.3,026.3,7.6,0000.0,0000.48,0001.00,0000.40
2023-12-07 05:56:00,SystemResetWarning,0825.1,5.00,000.00,025.0,023.9,000.0,033.3,026.3,7.4,0000.0,0000.49,0001.06,0000.40
2023-12-07 05:57:00,SystemResetWarning,0825.1,5.01,000.00,025.0,023.8,000.0,033.3,026.3,7.3,0000.0,0000.51,0001.63,0000.40
2023-12-07 05:58:00,SystemResetWarning,0825.1,5.01,000.00,024.9,023.8,000.0,033.3,026.2,7.4,0000.0,0000.51,0002.06,0000.40
2023-12-07 05:59:00,SystemResetWarning,0825.0,5.01,000.00,024.9,023.8,000.0,033.3,026.2,7.3,0000.0,0000.51,0002.07,0000.40
